Home   Weather   Fairfield Park   Past weeks
Flag for USA

Past Weather in Fairfield Park, Delaware, USA — Yesterday and Last 2 Weeks

Now
40 °F

Clear.


Feels Like: 37 °F
Forecast: 44 / 23 °F
Wind: 5 mph from Southeast

Location: New Castle County Airport

Current Time: Dec 8, 2019 at 6:46:42 pm

Latest Report: Dec 8, 2019 at 5:51 pm


Visibility: 10 mi

Pressure: 30.40 "Hg

Humidity: 68%

Dew Point: 30 °F

Location of Fairfield ParkLocation

Past Weather in Fairfield Park — Graph

°F

Fairfield Park Temperature Yesterday

Maximum temperature yesterday: 42 °F (at 1:51 pm)
Minimum temperature yesterday: 27 °F (at 11:51 pm)
Average temperature yesterday: 35 °F

High & Low Weather Summary for the Past Weeks

 TemperatureHumidityPressure
High63 °F (Nov 26, 2:51 pm)97% (Nov 26, 12:59 am)30.55 "Hg (Nov 26, 12:59 am)
Low23 °F (Dec 8, 6:51 am)30% (Dec 3, 1:51 pm)29.36 "Hg (Nov 24, 5:11 am)
Average40 °F68%29.89 "Hg
* Reported Nov 23 4:51 pm — Dec 8 4:51 pm, Fairfield Park. Weather by CustomWeather, © 2019

Note: Actual official high and low records may vary slightly from our data, if they occured in-between our weather recording intervals... More about our weather records

Fairfield Park Weather History for the Previous 24 Hours

Scroll right to see more
 ConditionsComfort  
Time TempWeatherWind HumidityBarometerVisibility
4:51 pm
Sun, Dec 8
40 °FClear.5 mph70%30.41 "Hg10 mi
3:51 pm42 °FSunny.12 mph62%30.43 "Hg10 mi
2:51 pm43 °FSunny.14 mph60%30.43 "Hg10 mi
1:51 pm43 °FSunny.13 mph56%30.45 "Hg10 mi
12:51 pm43 °FSunny.15 mph51%30.47 "Hg10 mi
11:51 am41 °FSunny.9 mph36%30.50 "Hg10 mi
10:51 am37 °FSunny.6 mph50%30.54 "Hg10 mi
9:51 am34 °FSunny.7 mph54%30.55 "Hg10 mi
8:51 am32 °FSunny.5 mph61%30.55 "Hg10 mi
7:51 am24 °FSunny.3 mph81%30.54 "Hg10 mi
6:51 am23 °FClear.No wind85%30.54 "Hg9 mi
5:51 am25 °FClear.No wind75%30.53 "Hg10 mi
4:51 am26 °FClear.3 mph69%30.53 "Hg10 mi
3:51 am26 °FClear.3 mph74%30.53 "Hg10 mi
2:51 am25 °FClear.5 mph81%30.54 "Hg10 mi
1:51 am26 °FClear.3 mph81%30.53 "Hg10 mi
12:51 am25 °FClear.No wind78%30.52 "Hg10 mi
11:51 pm
Sat, Dec 7
27 °FClear.No wind72%30.51 "Hg10 mi
10:51 pm29 °FClear.3 mph72%30.50 "Hg10 mi
9:51 pm29 °FClear.5 mph72%30.50 "Hg10 mi
8:51 pm30 °FClear.3 mph66%30.48 "Hg10 mi
7:51 pm33 °FClear.3 mph56%30.47 "Hg10 mi
6:51 pm34 °FClear.No wind52%30.46 "Hg10 mi
Weather by CustomWeather, © 2019

See weather overview

Advertising